Hourly Data Report for October 21, 2021

SHEARWATER RCS
NOVA SCOTIA
Current Station Operator: ECCC - MSC

44°37'47.000" N
63°30'48.000" W
24.00 m
8205092
71264
AAW

Download Data

Hourly Data (October 2021)
Hourly Data Report for October 21, 2021
TIME
LST
Temp Definition
°C
Dew Point Definition
°C
Rel Hum Definition
%
Precip. Amount Definition
mm

Wind Dir Definition
10's deg

Wind Spd Definition
km/h
Visibility Definition
km
Stn Press Definition
kPa
Hmdx Definition


Wind Chill Definition


Weather Definition


00:00 8.3 6.4 88 0.0 26 8   101.10     LegendNANA
01:00 8.4 6.5 88 0.0 31 3   101.11     LegendNANA
02:00 8.7 6.6 87 0.0 27 10   101.18     LegendNANA
03:00 8.3 6.0 86 0.0 27 6   101.19     LegendNANA
04:00 7.9 5.9 87 0.0 25 6   101.21     LegendNANA
05:00 7.3 5.6 88 0.0 28 8   101.26     LegendNANA
06:00 7.4 5.8 89 0.0 27 6   101.30     LegendNANA
07:00 8.5 6.8 89 0.0 31 5   101.35     LegendNANA
08:00 9.6 7.5 87 0.0 25 6   101.42     LegendNANA
09:00 10.5 7.6 82 0.0 23 11   101.46     LegendNANA
10:00 12.5 8.4 76 0.0 25 11   101.47     LegendNANA
11:00 14.0 6.5 60 0.0 30 9   101.46     LegendNANA
12:00 15.2 6.3 55 0.0 27 8   101.44     LegendNANA
13:00 15.6 8.4 62 0.0 24 7   101.40     LegendNANA
14:00 15.8 8.2 60 0.0 21 14   101.39     LegendNANA
15:00 16.0 7.8 58 0.0 21 12   101.39     LegendNANA
16:00 15.3 8.0 62 0.0 19 13   101.40     LegendNANA
17:00 13.3 9.0 75 0.0 16 4   101.42     LegendNANA
18:00 12.4 9.6 83 0.0 17 4   101.47     LegendNANA
19:00 13.4 10.8 84 0.0 17 9   101.49     LegendNANA
20:00 14.0 11.2 83 0.0 14 14   101.44     LegendNANA
21:00 14.2 11.8 86 0.0 13 9   101.43     LegendNANA
22:00 14.3 12.5 89 0.0 11 9   101.41     LegendNANA
23:00 14.5 13.0 90 0.0 11 10   101.33     LegendNANA

Notes on Data Quality.

Legend

  • E = Estimated
  • M = Missing
  • NA = Not Available*
  • [empty] = Indicates an unobserved value
Date modified: